Location: Paris
(18.5000°N, 73.9167°W)
Time: 02:05:57
(UTC+00:00)

Cosmos 1892 - Pass Details

Date: 18 April 2024
Orbit: 456 x 472 km, 82.5° (Epoch: 24 May)

Event Time Altitude Azimuth Distance (km) Brightness Sun altitude
Rises 23:51:28 0° 360° (N) 2,488 6.4 -9.5°
Reaches altitude 10° 23:53:34 10° 4° (N) 1,608 5.4 -10.0°
Maximum altitude 23:57:02 60° 85° (E) 527 2.4 -10.8°
Drops below altitude 10° 00:00:28 10° 166° (SSE) 1,593 4.9 -11.6°
Sets 00:02:33 0° 170° (S) 2,462 5.9 -12.1°
